Groton, CT

10:11 PM EST on November 23, 2017 (GMT -0500)
Groton-New London

Weather History for KGON - March, 2014

Change the Weather History Date:

Monday, March 24, 2014

  Actual Average Record
Temperature  
Mean Temperature 26 °F -  
Max Temperature 35 °F 48 °F 65 °F (1987)
Min Temperature 18 °F 29 °F 18 °F (2014)
Degree Days  
Heating Degree Days 39    
Moisture  
Dew Point 0 °F    
Average Humidity 33    
Maximum Humidity 48    
Minimum Humidity 23    
Precipitation  
Precipitation 0.00 in - - ()
Sea Level Pressure  
Sea Level Pressure 30.13 in    
Wind  
Wind Speed 14 mph (NNW)    
Max Wind Speed 20 mph    
Max Gust Speed 28 mph    
Visibility 10 miles    
Events      
Averages and records for this station are not official NWS values.
T = Trace of Precipitation, MM = Missing Value Source: NWS Daily Summary

Daily Weather History Graph

Daily Weather History Graph

Search for Another Location

Airport or City:

Trip Planner

Search our weather history database for the weather conditions in past years. The results will help you decide how hot, cold, wet, or windy it might be!

Date:

Astronomy

Mar. 24, 2014 Rise Set
Actual Time 6:44 AM EDT 7:04 PM EDT
Civil Twilight 6:17 AM EDT 7:32 PM EDT
Nautical Twilight 5:44 AM EDT 8:04 PM EDT
Astronomical Twilight 5:11 AM EDT 8:38 PM EDT
Moon 2:15 AM EDT 12:23 PM EDT
Length of Visible Light 13h 15m
Length of Day
12h 19m
Last Quarter, 43% of the Moon is Illuminated
Mar 24
Last Quarter
Mar 30
New
Apr 7
First Quarter
Apr 15
Full
Apr 22
Last Quarter

Hourly Weather History & Observations

Time (EDT) Temp. Windchill Dew Point Humidity Pressure Visibility Wind Dir Wind Speed Gust Speed Precip Events Conditions
12:56 AM 26.1 °F 12.3 °F 8.1 °F 47% 30.06 in 10.0 mi NNW 19.6 mph 27.6 mph N/A   Clear
1:56 AM 25.0 °F 11.7 °F 7.0 °F 46% 30.08 in 10.0 mi NNW 17.3 mph 25.3 mph N/A   Clear
2:56 AM 23.0 °F 10.1 °F 6.1 °F 48% 30.09 in 10.0 mi NNW 15.0 mph - N/A   Clear
3:56 AM 21.9 °F 8.2 °F 1.0 °F 40% 30.11 in 10.0 mi North 16.1 mph 24.2 mph N/A   Clear
4:56 AM 19.9 °F 7.9 °F -0.9 °F 40% 30.14 in 10.0 mi NNW 11.5 mph - N/A   Clear
5:56 AM 19.0 °F 6.1 °F -2.0 °F 40% 30.16 in 10.0 mi NNW 12.7 mph - N/A   Clear
6:56 AM 18.0 °F 6.9 °F -2.0 °F 41% 30.19 in 10.0 mi NNW 9.2 mph - N/A   Clear
7:56 AM 19.9 °F 7.3 °F -0.9 °F 40% 30.20 in 10.0 mi NNW 12.7 mph - N/A   Clear
8:56 AM 23.0 °F 11.7 °F -2.0 °F 34% 30.20 in 10.0 mi NNW 11.5 mph 21.9 mph N/A   Clear
9:56 AM 25.0 °F 13.6 °F -2.0 °F 31% 30.20 in 10.0 mi North 12.7 mph 21.9 mph N/A   Clear
10:56 AM 28.0 °F 17.5 °F -2.9 °F 26% 30.18 in 10.0 mi NNW 12.7 mph 19.6 mph N/A   Clear
11:56 AM 30.0 °F 21.1 °F -2.0 °F 25% 30.16 in 10.0 mi NW 10.4 mph 18.4 mph N/A   Clear
12:56 PM 30.9 °F 20.7 °F -0.9 °F 26% 30.14 in 10.0 mi NW 13.8 mph 19.6 mph N/A   Clear
1:56 PM 33.1 °F 25.5 °F -0.9 °F 23% 30.12 in 10.0 mi NW 9.2 mph - N/A   Clear
2:56 PM 34.0 °F 28.0 °F -0.9 °F 23% 30.09 in 10.0 mi NW 6.9 mph - N/A   Clear
3:56 PM 34.0 °F 24.6 °F 1.0 °F 25% 30.07 in 10.0 mi West 13.8 mph 18.4 mph N/A   Clear
4:56 PM 34.0 °F 24.2 °F -0.0 °F 24% 30.06 in 10.0 mi West 15.0 mph 19.6 mph N/A   Clear
5:56 PM 33.1 °F 24.9 °F -0.9 °F 23% 30.07 in 10.0 mi NW 10.4 mph 19.6 mph N/A   Clear
6:56 PM 30.9 °F 21.7 °F -0.9 °F 26% 30.09 in 10.0 mi NW 11.5 mph - N/A   Clear
7:56 PM 30.0 °F 22.4 °F -0.9 °F 27% 30.12 in 10.0 mi NW 8.1 mph - N/A   Clear
8:56 PM 28.0 °F 20.0 °F 1.0 °F 31% 30.14 in 10.0 mi NNW 8.1 mph - N/A   Clear
9:56 PM 28.0 °F 22.8 °F 1.0 °F 31% 30.15 in 10.0 mi NNW 4.6 mph - N/A   Clear
10:56 PM 25.0 °F 18.1 °F 1.9 °F 37% 30.15 in 10.0 mi North 5.8 mph - N/A   Clear
11:56 PM 24.1 °F 16.0 °F 3.9 °F 42% 30.16 in 10.0 mi NNW 6.9 mph - N/A   Clear